WE1C Weather Reports


time (UTC)temp
F
wind
direction
speed
knots
gust
knots
rain 1hr
in
rain 24hr
in
rain mn
in
humidity
%
barometer
mb
20260507000502 57 181 2.6 3.5 0.00 0.00 0.24 99 1006.3
20260507000457 57 181 2.6 2.6 0.00 0.24 0.24 99 1035.0
20260507000003 57 331 0.0 0.0 0.00 0.00 0.24 99 1006.4
20260506235952 57 331 0.0 0.0 0.00 0.24 0.24 99 1035.1
20260506235503 57 209 1.7 2.6 0.00 0.00 0.24 99 1006.4
20260506235450 57 209 0.9 1.7 0.00 0.24 0.24 99 1035.1
20260506235002 57 134 0.9 1.7 0.00 0.00 0.24 99 1006.3
20260506234946 57 134 0.9 0.9 0.00 0.24 0.24 99 1035.0
20260506234502 57 158 1.7 2.6 0.00 0.00 0.24 99 1006.2
20260506234443 57 352 0.0 0.0 0.00 0.24 0.24 99 1034.7
20260506234003 57 183 0.9 1.7 0.00 0.00 0.24 99 1006.0
20260506233941 57 191 0.9 0.9 0.00 0.24 0.24 99 1034.9
20260506233503 57 205 1.7 2.6 0.00 0.00 0.24 99 1006.1
20260506233437 57 134 0.9 0.9 0.00 0.24 0.24 99 1034.9
20260506232934 57 176 0.0 0.9 0.00 0.24 0.24 99 1034.7
20260506232503 57 33 0.9 2.6 0.00 0.00 0.24 99 1006.0
20260506232430 57 176 0.0 0.9 0.00 0.24 0.24 99 1034.6
20260506231926 57 92 0.0 0.9 0.00 0.24 0.24 99 1034.8
20260506231502 57 174 0.0 0.0 0.00 0.00 0.24 99 1006.0
20260506231423 57 101 1.7 1.7 0.00 0.24 0.24 99 1034.8
20260506231003 57 169 0.9 1.7 0.00 0.00 0.24 99 1006.0
20260506230920 58 189 0.9 0.9 0.00 0.24 0.24 99 1034.8
20260506230502 57 172 0.9 1.7 0.00 0.00 0.24 99 1006.0
20260506230417 57 49 0.0 0.9 0.00 0.24 0.24 99 1034.5
20260506230002 57 172 1.7 2.6 0.00 0.00 0.24 99 1006.1
20260506225914 57 66 0.0 0.9 0.05 0.24 0.24 99 1034.7
20260506225503 57 135 0.9 2.6 0.04 0.00 0.24 99 1006.0
20260506225411 57 187 2.6 4.3 0.05 0.24 0.24 99 1034.8
20260506224908 57 170 0.0 0.9 0.00 0.24 0.24 99 1034.7
20260506224503 57 190 2.6 3.5 0.07 0.00 0.23 99 1005.9
20260506224405 57 182 0.9 1.7 0.07 0.24 0.24 99 1034.9
20260506224003 57 201 0.9 1.7 0.11 0.00 0.23 99 1006.2
20260506223901 57 182 0.9 0.9 0.12 0.24 0.24 99 1034.7
20260506223356 57 168 1.7 2.6 0.09 0.22 0.22 99 1034.7
20260506222854 57 191 0.9 0.9 0.05 0.21 0.21 99 1034.7
20260506222350 57 184 0.9 0.9 0.09 0.21 0.21 99 1034.9
20260506222002 57 212 0.9 1.7 0.04 0.00 0.20 99 1006.4
20260506221848 57 171 1.7 1.7 0.05 0.20 0.20 99 1034.9
20260506221345 57 189 0.9 0.9 0.00 0.19 0.19 99 1035.1
20260506220842 57 60 0.9 0.9 0.00 0.19 0.19 99 1035.0
20260506220338 57 190 0.0 0.0 0.00 0.19 0.19 99 1035.0
20260506220002 57 157 1.7 2.6 0.00 0.00 0.19 99 1006.4
20260506215835 57 195 0.9 1.7 0.00 0.19 0.19 99 1035.0
20260506215503 57 187 2.6 3.5 0.00 0.00 0.19 99 1006.5
20260506215330 57 200 2.6 2.6 0.00 0.19 0.19 99 1035.3
20260506215002 57 200 1.7 3.5 0.00 0.00 0.19 99 1006.5
20260506214826 58 159 0.9 0.9 0.00 0.19 0.19 99 1035.1
20260506214323 58 168 0.0 0.0 0.07 0.19 0.19 99 1035.1
20260506213822 58 196 0.9 0.9 0.12 0.19 0.19 99 1035.2
20260506213502 58 177 0.0 0.0 0.09 0.00 0.18 99 1006.3
20260506213319 58 183 0.0 0.0 0.09 0.18 0.18 99 1035.0
20260506212816 58 192 0.0 0.9 0.05 0.17 0.17 98 1035.4
20260506212502 58 195 2.6 3.5 0.00 0.00 0.16 98 1006.6
20260506212312 58 187 0.9 0.9 0.00 0.17 0.17 98 1035.7
20260506211807 58 178 0.9 0.9 0.00 0.17 0.17 98 1035.3
20260506211502 58 161 0.9 1.7 0.00 0.00 0.16 98 1006.8
20260506211303 58 188 2.6 2.6 0.00 0.17 0.17 98 1035.3
20260506211003 58 134 2.6 3.5 0.00 0.00 0.16 98 1006.7
20260506210801 58 182 0.0 0.9 0.00 0.17 0.17 98 1035.5
20260506210257 58 193 2.6 2.6 0.00 0.17 0.17 98 1035.3
20260506210002 58 12 0.9 2.6 0.00 0.00 0.16 98 1006.6
20260506205754 58 181 1.7 1.7 0.00 0.17 0.17 98 1035.7
20260506205503 58 165 0.9 1.7 0.00 0.00 0.16 98 1006.7
20260506205250 58 88 0.9 1.7 0.05 0.17 0.17 98 1035.5
20260506205002 58 209 1.7 2.6 0.04 0.00 0.16 98 1006.9
20260506204747 58 203 1.7 1.7 0.05 0.17 0.17 98 1035.6
20260506204503 58 85 0.9 1.7 0.04 0.00 0.16 98 1006.8
20260506204245 58 201 0.9 0.9 0.00 0.16 0.16 98 1035.5
20260506203742 58 95 0.9 0.9 0.00 0.16 0.16 97 1035.7
20260506203239 58 211 0.9 1.7 0.00 0.16 0.16 97 1035.9
20260506203002 58 132 0.9 1.7 0.00 0.00 0.15 97 1007.2
20260506202736 58 84 0.9 1.7 0.00 0.16 0.16 97 1035.7
20260506202503 58 174 3.5 4.3 0.00 0.00 0.15 97 1007.0
20260506202233 58 201 0.0 0.9 0.00 0.16 0.16 97 1035.5
20260506202002 58 183 1.7 2.6 0.00 0.00 0.15 97 1007.2
20260506201730 58 234 1.7 1.7 0.00 0.16 0.16 97 1035.8
20260506201503 58 188 0.9 1.7 0.04 0.00 0.15 97 1007.0
20260506201226 58 191 3.5 4.3 0.05 0.16 0.16 97 1036.0
20260506201002 58 162 0.9 1.7 0.04 0.00 0.15 97 1007.1
20260506200723 58 224 2.6 2.6 0.05 0.16 0.16 97 1035.9
20260506200502 58 212 3.5 4.3 0.07 0.00 0.15 97 1007.1
20260506200220 58 192 0.9 0.9 0.07 0.15 0.15 97 1035.8
20260506200003 58 191 2.6 3.5 0.07 0.00 0.15 97 1007.2
20260506195717 58 211 0.9 0.9 0.07 0.15 0.15 97 1035.9
20260506195502 58 6 1.7 2.6 0.00 0.00 0.13 97 1007.3
20260506195213 58 196 1.7 1.7 0.05 0.14 0.14 97 1035.9
20260506194711 58 201 0.9 1.7 0.05 0.14 0.14 96 1035.7
20260506194502 58 178 0.9 1.7 0.04 0.00 0.13 96 1007.2
20260506194207 58 191 1.7 2.6 0.05 0.13 0.13 96 1036.1
20260506194002 58 176 0.9 1.7 0.04 0.00 0.13 96 1007.2
20260506193705 58 182 2.6 2.6 0.09 0.13 0.13 95 1036.0
20260506193503 58 156 2.6 3.5 0.09 0.00 0.13 95 1007.2
20260506193201 59 191 2.6 2.6 0.05 0.12 0.12 95 1036.0
20260506193002 59 115 1.7 2.6 0.04 0.00 0.12 95 1007.4
20260506192658 59 176 0.9 1.7 0.05 0.11 0.11 95 1035.9
20260506192503 59 146 0.9 1.7 0.04 0.00 0.11 95 1007.3
20260506192154 59 145 0.9 0.9 0.05 0.11 0.11 94 1036.1
20260506192002 59 146 2.6 3.5 0.11 0.00 0.11 94 1007.4
20260506191651 59 183 1.7 1.7 0.07 0.11 0.11 94 1036.1
20260506191502 59 200 1.7 2.6 0.07 0.00 0.10 94 1007.1
20260506191147 59 196 1.7 1.7 0.05 0.09 0.09 94 1036.4
20260506190645 60 155 1.7 4.3 0.09 0.09 0.09 93 1036.2
20260506190141 59 187 0.0 0.0 0.05 0.09 0.09 93 1036.2
20260506190002 60 209 1.7 2.6 0.04 0.00 0.08 93 1007.6
20260506185638 60 178 0.9 0.9 0.05 0.08 0.08 92 1036.1
20260506185134 60 196 1.7 2.6 0.05 0.08 0.08 92 1035.9
20260506185003 60 197 1.7 2.6 0.04 0.00 0.07 92 1007.6
20260506184632 60 179 0.9 0.9 0.07 0.07 0.07 91 1036.0
20260506184503 60 159 0.9 1.7 0.07 0.00 0.07 91 1007.3
20260506184129 60 177 0.9 0.9 0.07 0.07 0.07 91 1036.1
20260506184002 60 179 1.7 1.7 0.11 0.00 0.07 91 1007.6
20260506183626 60 176 0.0 0.9 0.09 0.06 0.06 90 1036.4
20260506183503 60 180 0.9 1.7 0.14 0.00 0.05 90 1007.7
20260506183122 60 227 2.6 2.6 0.09 0.05 0.05 89 1036.5
20260506183004 60 181 0.9 1.7 0.09 0.00 0.05 89 1007.8
20260506182620 61 194 0.9 1.7 0.05 0.04 0.04 88 1036.6
20260506182502 61 197 1.7 2.6 0.04 0.00 0.03 88 1007.9
20260506182116 61 129 0.0 0.9 0.12 0.04 0.04 88 1036.6
20260506182003 61 203 0.0 0.0 0.11 0.00 0.03 87 1007.9
20260506181614 61 162 0.0 0.9 0.07 0.03 0.03 87 1036.8
20260506181502 61 174 0.9 1.7 0.07 0.00 0.02 86 1008.0
20260506181111 62 194 0.0 0.0 0.05 0.02 0.02 85 1036.8
20260506181002 62 293 3.5 4.3 0.04 0.00 0.01 85 1008.1
20260506180608 62 143 0.0 0.9 0.05 0.02 0.02 85 1036.8
20260506180503 62 184 0.0 0.0 0.09 0.00 0.01 84 1008.3
20260506180104 62 95 0.9 0.9 0.05 0.01 0.01 83 1036.9
20260506175601 63 117 0.9 0.9 0.05 0.01 0.01 80 1036.8
20260506175502 63 222 2.6 3.5 0.00 0.00 0.00 79 1008.4
20260506175057 64 215 1.7 1.7 0.00 0.00 0.00 78 1037.0
20260506175003 64 3 2.6 3.5 0.00 0.00 0.00 76 1008.3
20260506174556 65 197 0.9 1.7 0.00 0.00 0.00 74 1037.1
20260506174502 65 192 3.5 3.5 0.00 0.00 0.00 74 1008.3
20260506174051 66 183 4.3 6.1 0.00 0.00 0.00 71 1037.0
20260506173550 67 176 3.5 6.1 0.00 0.00 0.00 69 1037.0
20260506173504 68 249 3.5 4.3 0.00 0.00 0.00 68 1008.4
20260506173046 68 209 1.7 2.6 0.00 0.00 0.00 66 1037.1
20260506173002 69 53 2.6 4.3 0.00 0.00 0.00 65 1008.4
20260506172544 69 245 0.9 0.9 0.00 0.00 0.00 64 1036.9
20260506172502 69 245 1.7 1.7 0.00 0.00 0.00 64 1008.2
20260506172040 69 209 1.7 2.6 0.00 0.00 0.00 63 1036.7
20260506172003 69 209 2.6 3.5 0.00 0.00 0.00 63 1008.0
20260506171537 69 202 2.6 5.2 0.00 0.00 0.00 62 1037.0
20260506171503 69 202 2.6 5.2 0.00 0.00 0.00 62 1008.3
20260506171035 69 208 2.6 2.6 0.00 0.00 0.00 62 1036.5
20260506171002 69 208 2.6 3.5 0.00 0.00 0.00 62 1007.8
20260506170532 69 222 2.6 4.3 0.00 0.00 0.00 62 1036.8
20260506170502 69 222 2.6 4.3 0.00 0.00 0.00 62 1008.1
20260506170030 70 196 3.5 6.1 0.00 0.00 0.00 60 1036.6
20260506170003 70 196 3.5 6.1 0.00 0.00 0.00 60 1007.9
20260506165528 70 114 3.5 5.2 0.00 0.00 0.00 61 1036.7
20260506165502 70 114 3.5 5.2 0.00 0.00 0.00 61 1008.0
20260506165024 71 198 3.5 5.2 0.00 0.00 0.00 60 1036.9
20260506165002 71 198 3.5 5.2 0.00 0.00 0.00 60 1008.2
20260506164521 71 38 2.6 2.6 0.00 0.00 0.00 59 1036.8
20260506164503 71 38 2.6 3.5 0.00 0.00 0.00 59 1008.1
20260506164018 71 239 3.5 4.3 0.00 0.00 0.00 59 1036.6
20260506164002 71 239 3.5 4.3 0.00 0.00 0.00 59 1007.9
20260506163514 70 206 4.3 5.2 0.00 0.00 0.00 59 1036.6
20260506163010 70 193 1.7 4.3 0.00 0.00 0.00 60 1036.9
20260506163002 70 193 2.6 4.3 0.00 0.00 0.00 60 1008.2
20260506162506 70 193 0.9 0.9 0.00 0.00 0.00 60 1037.0
20260506162004 70 171 2.6 4.3 0.00 0.00 0.00 61 1037.2
20260506162002 70 171 2.6 4.3 0.00 0.00 0.00 61 1008.5
20260506161502 70 82 2.6 4.3 0.00 0.00 0.00 61 1008.5
20260506161003 70 188 3.5 4.3 0.00 0.00 0.00 61 1008.5
20260506160958 70 188 3.5 4.3 0.00 0.00 0.00 61 1037.2
20260506160502 69 180 1.7 1.7 0.00 0.00 0.00 61 1008.5
20260506160455 69 180 0.9 0.9 0.00 0.00 0.00 61 1037.2
20260506160003 69 151 0.9 1.7 0.00 0.00 0.00 62 1008.4
20260506155952 69 151 0.9 0.9 0.00 0.00 0.00 62 1037.1
20260506155502 69 194 2.6 3.5 0.00 0.00 0.00 63 1008.8
20260506155450 69 194 1.7 2.6 0.00 0.00 0.00 63 1037.5
20260506155002 69 218 5.2 6.1 0.00 0.00 0.00 62 1008.9
20260506154503 69 205 1.7 2.6 0.00 0.00 0.00 63 1008.9
20260506154002 69 92 1.7 1.7 0.00 0.00 0.00 62 1008.9
20260506153622 69 178 0.9 0.9 0.00 0.00 0.00 63 1037.7
20260506153503 68 160 1.7 2.6 0.00 0.00 0.00 63 1009.1
20260506153120 68 162 1.7 2.6 0.00 0.00 0.00 63 1037.7
20260506153002 68 184 2.6 3.5 0.00 0.00 0.00 64 1009.2
20260506152617 68 93 0.9 1.7 0.00 0.00 0.00 64 1037.6
20260506152503 68 196 1.7 2.6 0.00 0.00 0.00 64 1008.9
20260506152115 68 162 0.0 0.9 0.00 0.00 0.00 64 1037.9
20260506152002 68 112 2.6 3.5 0.00 0.00 0.00 63 1009.1
20260506151613 68 168 2.6 4.3 0.00 0.00 0.00 64 1038.1
20260506151503 68 207 2.6 4.3 0.00 0.00 0.00 64 1009.2
20260506151109 68 178 2.6 4.3 0.00 0.00 0.00 63 1037.8
20260506150606 68 193 0.9 1.7 0.00 0.00 0.00 64 1037.9
20260506150503 68 203 3.5 4.3 0.00 0.00 0.00 63 1009.5
20260506150003 68 212 2.6 3.5 0.00 0.00 0.00 64 1009.5
20260506145600 69 258 4.3 6.1 0.00 0.00 0.00 63 1038.3
20260506145057 69 210 2.6 2.6 0.00 0.00 0.00 64 1038.2
20260506145002 69 350 2.6 3.5 0.00 0.00 0.00 64 1009.3
20260506144554 69 150 0.9 1.7 0.00 0.00 0.00 63 1038.3
20260506144503 69 191 1.7 3.5 0.00 0.00 0.00 63 1009.4
20260506144051 69 177 0.9 1.7 0.00 0.00 0.00 64 1038.1
20260506144003 69 158 1.7 2.6 0.00 0.00 0.00 64 1009.6
20260506143549 68 204 5.2 8.7 0.00 0.00 0.00 65 1038.3
20260506143503 68 187 0.9 1.7 0.00 0.00 0.00 66 1009.6
20260506143047 68 187 2.6 4.3 0.00 0.00 0.00 67 1038.7
20260506143002 68 216 2.6 3.5 0.00 0.00 0.00 67 1009.6
20260506142544 67 207 0.9 0.9 0.00 0.00 0.00 68 1038.7
20260506142503 67 207 1.7 1.7 0.00 0.00 0.00 68 1009.9
20260506142042 67 156 2.6 2.6 0.00 0.00 0.00 67 1038.2
20260506142003 67 156 2.6 3.5 0.00 0.00 0.00 67 1009.5
20260506141540 67 105 2.6 4.3 0.00 0.00 0.00 67 1038.3
20260506141038 67 242 1.7 1.7 0.00 0.00 0.00 68 1038.4
20260506141002 67 242 1.7 2.6 0.00 0.00 0.00 68 1009.7
20260506140535 66 179 2.6 4.3 0.00 0.00 0.00 68 1038.1
20260506140032 66 210 1.7 1.7 0.00 0.00 0.00 69 1038.3
20260506140003 66 210 1.7 2.6 0.00 0.00 0.00 69 1009.6
20260506135529 66 158 0.9 0.9 0.00 0.00 0.00 69 1038.1
20260506135503 66 158 0.9 1.7 0.00 0.00 0.00 69 1009.4
20260506135025 67 12 0.9 1.7 0.00 0.00 0.00 69 1038.1
20260506135002 67 12 1.7 2.6 0.00 0.00 0.00 69 1009.4
20260506134521 67 203 2.6 5.2 0.00 0.00 0.00 69 1038.2
20260506134018 66 99 1.7 2.6 0.00 0.00 0.00 71 1038.4
20260506134002 66 99 1.7 3.5 0.00 0.00 0.00 71 1009.7
20260506133515 66 253 4.3 5.2 0.00 0.00 0.00 71 1038.3
20260506133503 66 253 4.3 5.2 0.00 0.00 0.00 71 1009.6
20260506133012 65 188 1.7 1.7 0.00 0.00 0.00 71 1038.2
20260506133002 65 188 2.6 2.6 0.00 0.00 0.00 71 1009.5
20260506132509 65 175 3.5 4.3 0.00 0.00 0.00 72 1038.3
20260506132503 65 175 3.5 4.3 0.00 0.00 0.00 72 1009.6
20260506132006 65 199 1.7 2.6 0.00 0.00 0.00 72 1038.4
20260506132002 65 199 1.7 3.5 0.00 0.00 0.00 72 1009.7
20260506131503 65 95 2.6 3.5 0.00 0.00 0.00 73 1009.9
20260506131002 64 211 2.6 4.3 0.00 0.00 0.00 73 1010.2
20260506131000 64 211 2.6 4.3 0.00 0.00 0.00 73 1039.0
20260506130503 64 200 2.6 3.5 0.00 0.00 0.00 74 1010.2
20260506130456 64 200 2.6 2.6 0.00 0.00 0.00 74 1039.0
20260506130004 63 108 1.7 2.6 0.00 0.00 0.00 75 1010.3
20260506125954 63 108 0.9 1.7 0.00 0.00 0.00 75 1039.1
20260506125502 63 218 0.9 1.7 0.00 0.00 0.00 76 1010.2
20260506125452 63 218 0.9 0.9 0.00 0.00 0.00 76 1039.0
20260506125002 63 82 1.7 3.5 0.00 0.00 0.00 76 1010.1
20260506124950 63 82 1.7 2.6 0.00 0.00 0.00 76 1038.9
20260506124503 63 226 1.7 2.6 0.00 0.00 0.00 76 1010.0
20260506124447 63 226 0.9 1.7 0.00 0.00 0.00 76 1038.8
20260506123945 62 207 0.9 1.7 0.00 0.00 0.00 77 1039.1
20260506123443 62 202 1.7 2.6 0.00 0.00 0.00 77 1038.7
20260506123003 62 170 1.7 2.6 0.00 0.00 0.00 77 1010.2
20260506122940 62 209 1.7 1.7 0.00 0.00 0.00 76 1039.1
20260506122502 63 186 1.7 2.6 0.00 0.00 0.00 76 1009.9
20260506122437 62 188 0.9 1.7 0.00 0.00 0.00 76 1038.8
20260506122003 62 166 0.9 1.7 0.00 0.00 0.00 77 1009.9
20260506121935 62 193 2.6 2.6 0.00 0.00 0.00 77 1038.7
20260506121503 62 206 3.5 4.3 0.00 0.00 0.00 78 1009.8
20260506121432 61 183 2.6 4.3 0.00 0.00 0.00 78 1038.8
20260506121002 62 186 1.7 2.6 0.00 0.00 0.00 78 1010.2
20260506120929 62 191 0.9 1.7 0.00 0.00 0.00 78 1039.0
20260506120502 61 182 3.5 3.5 0.00 0.00 0.00 78 1010.1
20260506120426 61 119 0.9 1.7 0.00 0.00 0.00 78 1038.9
20260506120003 61 185 1.7 2.6 0.00 0.00 0.00 78 1010.0
20260506115924 61 173 0.9 1.7 0.00 0.00 0.00 78 1038.8
20260506115503 61 158 1.7 2.6 0.00 0.00 0.00 79 1010.2
20260506115421 61 149 0.9 0.9 0.00 0.00 0.00 79 1039.0
20260506114920 61 98 1.7 2.6 0.00 0.00 0.00 79 1038.8
20260506114502 61 187 1.7 1.7 0.00 0.00 0.00 78 1010.0
20260506114417 61 175 0.9 1.7 0.00 0.00 0.00 79 1038.8
20260506114003 61 191 2.6 3.5 0.00 0.00 0.00 78 1009.9
20260506113916 61 191 1.7 1.7 0.00 0.00 0.00 79 1038.9
20260506113502 60 14 2.6 3.5 0.00 0.00 0.00 80 1010.3
20260506113413 60 41 1.7 2.6 0.00 0.00 0.00 80 1038.8
20260506113003 60 189 0.9 1.7 0.00 0.00 0.00 80 1010.4
20260506112909 60 191 0.9 0.9 0.00 0.00 0.00 80 1039.0
20260506112502 59 185 0.9 1.7 0.00 0.00 0.00 81 1010.3
20260506112407 59 197 1.7 1.7 0.00 0.00 0.00 81 1039.1
20260506112002 59 186 1.7 1.7 0.00 0.00 0.00 82 1010.3
20260506111904 59 173 0.9 1.7 0.00 0.00 0.00 82 1039.1
20260506111402 59 166 0.9 0.9 0.00 0.00 0.00 82 1039.1
20260506111003 59 137 0.9 1.7 0.00 0.00 0.00 81 1010.4
20260506110859 59 172 1.7 1.7 0.00 0.00 0.00 81 1039.3
20260506110503 59 242 0.9 1.7 0.00 0.00 0.00 81 1010.6
20260506110356 59 190 0.9 0.9 0.00 0.00 0.00 81 1039.4
20260506110002 59 191 2.6 2.6 0.00 0.00 0.00 81 1010.4
20260506105853 59 200 1.7 2.6 0.00 0.00 0.00 81 1039.2
20260506105503 59 116 1.7 2.6 0.00 0.00 0.00 82 1010.1
20260506105349 59 162 0.9 0.9 0.00 0.00 0.00 82 1039.2
20260506105003 59 172 1.7 2.6 0.00 0.00 0.00 82 1010.2
20260506104847 59 175 1.7 1.7 0.00 0.00 0.00 82 1039.2
20260506104502 59 201 1.7 2.6 0.00 0.00 0.00 82 1010.5
20260506104344 58 149 0.9 1.7 0.00 0.00 0.00 82 1038.9
20260506104003 58 190 1.7 2.6 0.00 0.00 0.00 82 1010.3
20260506103842 58 174 0.9 1.7 0.00 0.00 0.00 82 1039.0
20260506103503 58 194 1.7 2.6 0.00 0.00 0.00 83 1010.4
20260506103339 58 184 0.9 0.9 0.00 0.00 0.00 83 1039.2
20260506103002 58 197 2.6 3.5 0.00 0.00 0.00 83 1010.3
20260506102836 58 84 0.9 0.9 0.00 0.00 0.00 83 1039.1
20260506102503 58 182 1.7 2.6 0.00 0.00 0.00 83 1010.1
20260506102334 58 195 0.9 0.9 0.00 0.00 0.00 83 1039.0
20260506102003 58 198 2.6 3.5 0.00 0.00 0.00 83 1010.0
20260506101831 57 199 0.9 1.7 0.00 0.00 0.00 83 1038.8
20260506101504 57 203 0.9 1.7 0.00 0.00 0.00 83 1010.1
20260506101327 57 184 1.7 1.7 0.00 0.00 0.00 83 1038.9
20260506100825 57 155 0.0 0.9 0.00 0.00 0.00 83 1039.2
20260506100502 57 207 0.9 1.7 0.00 0.00 0.00 83 1010.2
20260506100323 57 188 1.7 1.7 0.00 0.00 0.00 83 1039.0
20260506100003 57 194 0.9 1.7 0.00 0.00 0.00 83 1010.2
20260506095822 57 194 0.9 1.7 0.00 0.00 0.00 83 1039.1
20260506095502 57 187 0.9 1.7 0.00 0.00 0.00 83 1010.2
20260506095318 57 134 0.9 1.7 0.00 0.00 0.00 83 1039.1
20260506095003 57 189 1.7 2.6 0.00 0.00 0.00 83 1010.2
20260506094815 57 225 2.6 4.3 0.00 0.00 0.00 83 1038.8
20260506094502 57 84 0.9 2.6 0.00 0.00 0.00 82 1010.2
20260506094314 58 156 0.9 0.9 0.00 0.00 0.00 82 1038.5
20260506094002 58 89 4.3 7.8 0.00 0.00 0.00 82 1010.2
20260506093812 58 201 1.7 1.7 0.00 0.00 0.00 82 1038.8
20260506093503 58 65 1.7 3.5 0.00 0.00 0.00 82 1010.3
20260506093308 58 203 1.7 1.7 0.00 0.00 0.00 82 1039.2
20260506093002 57 180 1.7 2.6 0.00 0.00 0.00 82 1010.1
20260506092807 57 201 2.6 2.6 0.00 0.00 0.00 82 1038.7
20260506092502 57 161 0.9 1.7 0.00 0.00 0.00 82 1010.2
20260506092306 57 201 1.7 4.3 0.00 0.00 0.00 82 1038.9
20260506092003 57 186 0.9 1.7 0.00 0.00 0.00 82 1010.2
20260506091801 58 164 1.7 1.7 0.00 0.00 0.00 82 1038.5
20260506091502 58 195 1.7 2.6 0.00 0.00 0.00 81 1010.0
20260506091258 58 150 1.7 1.7 0.00 0.00 0.00 81 1038.7
20260506091002 58 145 3.5 4.3 0.00 0.00 0.00 81 1010.0
20260506090756 58 186 0.9 1.7 0.00 0.00 0.00 81 1038.9
20260506090503 58 199 2.6 4.3 0.00 0.00 0.00 81 1010.1
20260506090253 58 200 0.0 0.9 0.00 0.00 0.00 81 1038.9
20260506090002 58 101 1.7 2.6 0.00 0.00 0.00 81 1009.9
20260506085750 58 168 0.0 0.9 0.00 0.00 0.00 81 1039.0
20260506085502 58 141 0.9 1.7 0.00 0.00 0.00 81 1010.1
20260506085246 58 188 0.9 0.9 0.00 0.00 0.00 81 1039.0
20260506085003 58 184 1.7 1.7 0.00 0.00 0.00 80 1010.1
20260506084743 58 187 0.9 1.7 0.00 0.00 0.00 80 1039.0
20260506084504 58 191 2.6 3.5 0.00 0.00 0.00 80 1010.1
20260506084239 58 180 0.0 0.9 0.00 0.00 0.00 80 1038.9
20260506084003 58 184 0.9 1.7 0.00 0.00 0.00 80 1010.2
20260506083736 58 188 0.9 0.9 0.00 0.00 0.00 80 1039.1
20260506083502 58 149 1.7 2.6 0.00 0.00 0.00 80 1010.2
20260506083234 58 178 0.9 0.9 0.00 0.00 0.00 80 1039.1
20260506083003 58 179 2.6 4.3 0.00 0.00 0.00 80 1010.1
20260506082731 58 184 0.9 0.9 0.00 0.00 0.00 80 1039.0
20260506082502 58 227 1.7 2.6 0.00 0.00 0.00 80 1010.0
20260506082226 58 173 0.9 0.9 0.00 0.00 0.00 80 1039.1
20260506082002 58 138 0.9 1.7 0.00 0.00 0.00 80 1010.3
20260506081724 58 136 2.6 2.6 0.00 0.00 0.00 80 1038.9
20260506081503 58 151 0.9 1.7 0.00 0.00 0.00 79 1010.1
20260506081221 59 82 0.9 0.9 0.00 0.00 0.00 79 1039.0
20260506081003 59 148 0.9 2.6 0.00 0.00 0.00 79 1010.1
20260506080719 59 58 0.9 0.9 0.00 0.00 0.00 79 1039.1
20260506080502 59 60 2.6 3.5 0.00 0.00 0.00 79 1010.5
20260506080215 59 194 2.6 2.6 0.00 0.00 0.00 79 1039.1
20260506073200 59 199 2.6 2.6 0.00 0.00 0.00 78 1038.9
20260506073002 59 178 0.9 1.7 0.00 0.00 0.00 77 1010.1
20260506072656 59 153 1.7 1.7 0.00 0.00 0.00 77 1039.0
20260506072503 59 217 2.6 3.5 0.00 0.00 0.00 77 1010.4
20260506072154 59 210 1.7 2.6 0.00 0.00 0.00 77 1038.9
20260506072003 59 188 1.7 2.6 0.00 0.00 0.00 78 1010.1
20260506071652 59 212 0.0 1.7 0.00 0.00 0.00 77 1038.8
20260506071502 59 202 2.6 3.5 0.00 0.00 0.00 78 1010.0
20260506071149 59 224 0.9 1.7 0.00 0.00 0.00 77 1038.8
20260506071003 59 190 1.7 2.6 0.00 0.00 0.00 77 1010.0
20260506070646 59 190 2.6 2.6 0.00 0.00 0.00 77 1038.8
20260506070143 60 199 1.7 1.7 0.00 0.00 0.00 76 1038.8
20260506062503 60 208 3.5 3.5 0.00 0.00 0.00 74 1009.9
20260506062120 60 190 0.0 0.9 0.00 0.00 0.00 74 1038.8
20260506062002 60 240 0.9 1.7 0.00 0.00 0.00 74 1010.1
20260506061616 60 190 0.9 0.9 0.00 0.00 0.00 74 1038.9
20260506061503 60 157 1.7 3.5 0.00 0.00 0.00 74 1009.9
20260506061114 60 207 1.7 1.7 0.00 0.00 0.00 74 1038.9
20260506061002 60 198 2.6 3.5 0.00 0.00 0.00 74 1009.8
20260506060612 60 209 1.7 2.6 0.00 0.00 0.00 73 1038.7
20260506060109 61 208 1.7 1.7 0.00 0.00 0.00 73 1038.9
20260506051041 62 156 1.7 1.7 0.00 0.00 0.00 69 1039.1
20260506051002 62 156 1.7 2.6 0.00 0.00 0.00 69 1010.3
20260506050538 62 193 1.7 1.7 0.00 0.00 0.00 69 1039.0
20260506050503 62 193 1.7 2.6 0.00 0.00 0.00 69 1010.2
20260506045029 62 60 2.6 4.3 0.00 0.00 0.00 67 1038.9
20260506045002 62 60 2.6 4.3 0.00 0.00 0.00 67 1010.1
20260506044527 62 191 2.6 2.6 0.00 0.00 0.00 67 1039.2
20260506044502 62 191 2.6 3.5 0.00 0.00 0.00 67 1010.4
20260506044024 62 180 3.5 5.2 0.00 0.00 0.00 67 1039.0
20260506044003 62 180 3.5 5.2 0.00 0.00 0.00 67 1010.2
20260506043521 62 187 1.7 1.7 0.00 0.00 0.00 67 1039.1
20260506043019 62 194 2.6 4.3 0.00 0.00 0.00 66 1039.2
20260506043003 62 194 2.6 4.3 0.00 0.00 0.00 66 1010.4
20260506042518 62 197 1.7 1.7 0.00 0.00 0.00 66 1039.3
20260506042502 62 197 1.7 2.6 0.00 0.00 0.00 66 1010.5
20260506042015 62 171 1.7 2.6 0.00 0.00 0.00 67 1039.1
20260506042003 62 171 2.6 3.5 0.00 0.00 0.00 67 1010.3
20260506041514 62 186 1.7 2.6 0.00 0.00 0.00 66 1039.0
20260506041503 62 186 2.6 3.5 0.00 0.00 0.00 66 1010.2
20260506041010 62 174 2.6 2.6 0.00 0.00 0.00 66 1039.0
20260506041003 62 174 2.6 3.5 0.00 0.00 0.00 66 1010.2
20260506040508 62 106 2.6 2.6 0.00 0.00 0.00 67 1039.0
20260506040502 62 106 2.6 3.5 0.00 0.00 0.00 67 1010.2
20260506040004 62 210 1.7 1.7 0.00 0.00 0.00 66 1039.2
20260506035502 62 182 2.6 3.5 0.00 0.00 0.00 67 1010.4
20260506034957 62 176 1.7 2.6 0.00 0.00 0.00 67 1038.9
20260506034503 62 180 3.5 4.3 0.00 0.00 0.00 66 1010.3
20260506034455 62 180 2.6 4.3 0.00 0.00 0.00 66 1039.1
20260506033952 62 220 2.6 5.2 0.00 0.00 0.00 67 1039.1
20260506033503 62 201 1.7 3.5 0.00 0.00 0.00 66 1010.4
20260506033450 62 201 1.7 2.6 0.00 0.00 0.00 66 1039.2
20260506033002 62 191 2.6 3.5 0.00 0.00 0.00 66 1010.4
20260506032946 62 191 1.7 2.6 0.00 0.00 0.00 66 1039.2
20260506032503 62 196 2.6 3.5 0.00 0.00 0.00 66 1010.2
20260506032444 62 47 1.7 1.7 0.00 0.00 0.00 66 1039.0
20260506032003 62 193 1.7 2.6 0.00 0.00 0.00 66 1010.1
20260506031939 62 295 2.6 2.6 0.00 0.00 0.00 66 1038.9
20260506031503 62 178 1.7 2.6 0.00 0.00 0.00 66 1010.2
20260506031437 62 209 0.9 1.7 0.00 0.00 0.00 66 1038.9
20260506031002 62 207 1.7 2.6 0.00 0.00 0.00 66 1010.3
20260506030935 62 183 0.9 1.7 0.00 0.00 0.00 66 1038.9
20260506030432 62 177 0.9 1.7 0.00 0.00 0.00 66 1038.9
20260506030002 62 202 0.9 1.7 0.00 0.00 0.00 65 1010.0
20260506025929 62 213 2.6 2.6 0.00 0.00 0.00 65 1039.1
20260506025502 62 214 3.5 5.2 0.00 0.00 0.00 65 1010.3
20260506025426 62 220 2.6 2.6 0.00 0.00 0.00 66 1038.9
20260506025003 62 194 1.7 2.6 0.00 0.00 0.00 66 1010.1
20260506024923 62 251 1.7 1.7 0.00 0.00 0.00 66 1038.9
20260506024503 62 172 2.6 3.5 0.00 0.00 0.00 65 1009.9
20260506024420 62 198 0.0 0.9 0.00 0.00 0.00 65 1039.0
20260506024003 62 202 2.6 3.5 0.00 0.00 0.00 65 1010.0
20260506023915 62 147 0.9 1.7 0.00 0.00 0.00 65 1039.1
20260506023502 62 149 1.7 3.5 0.00 0.00 0.00 65 1010.0
20260506023412 62 40 0.9 1.7 0.00 0.00 0.00 65 1038.9
20260506023003 62 183 2.6 3.5 0.00 0.00 0.00 65 1010.1
20260506022909 62 187 1.7 2.6 0.00 0.00 0.00 65 1038.9
20260506022407 62 99 0.9 0.9 0.00 0.00 0.00 64 1038.7
20260506022002 62 199 2.6 3.5 0.00 0.00 0.00 64 1010.1
20260506021905 62 206 1.7 2.6 0.00 0.00 0.00 64 1038.9
20260506021503 63 196 4.3 6.1 0.00 0.00 0.00 63 1010.2
20260506021402 63 200 1.7 2.6 0.00 0.00 0.00 63 1038.9
20260506021004 63 176 2.6 4.3 0.00 0.00 0.00 63 1010.2
20260506020858 63 143 2.6 2.6 0.00 0.00 0.00 63 1039.1
20260506020503 63 182 3.5 4.3 0.00 0.00 0.00 62 1010.3
20260506020356 63 231 1.7 1.7 0.00 0.00 0.00 63 1038.8
20260506015853 63 287 3.5 5.2 0.00 0.00 0.00 62 1038.9
20260506015502 63 83 0.9 1.7 0.00 0.00 0.00 63 1009.9
20260506015351 63 238 1.7 1.7 0.00 0.00 0.00 62 1038.9
20260506015003 63 54 1.7 3.5 0.00 0.00 0.00 62 1009.9
20260506014848 63 69 0.9 1.7 0.00 0.00 0.00 62 1039.0
20260506014502 63 177 2.6 3.5 0.00 0.00 0.00 62 1010.1
20260506014344 63 185 1.7 2.6 0.00 0.00 0.00 62 1038.9
20260506014002 64 186 2.6 4.3 0.00 0.00 0.00 62 1009.8
20260506013841 64 179 2.6 2.6 0.00 0.00 0.00 62 1038.4
20260506013503 64 152 1.7 2.6 0.00 0.00 0.00 62 1009.8
20260506013339 64 193 1.7 1.7 0.00 0.00 0.00 62 1038.4
20260506013003 64 178 1.7 2.6 0.00 0.00 0.00 62 1009.5
20260506012835 64 181 0.9 1.7 0.00 0.00 0.00 62 1038.4
20260506012502 64 144 2.6 3.5 0.00 0.00 0.00 62 1009.5
20260506012332 64 166 0.0 0.9 0.00 0.00 0.00 62 1038.4
20260506012003 64 188 2.6 3.5 0.00 0.00 0.00 61 1009.3
20260506011829 64 122 1.7 2.6 0.00 0.00 0.00 61 1038.1
20260506011502 64 183 2.6 3.5 0.00 0.00 0.00 61 1009.4
20260506011325 64 110 1.7 4.3 0.00 0.00 0.00 61 1038.2
20260506011003 64 209 2.6 3.5 0.00 0.00 0.00 61 1009.4
20260506010823 65 160 0.0 0.9 0.00 0.00 0.00 61 1038.2
20260506010502 65 206 0.0 0.0 0.00 0.00 0.00 61 1009.5
20260506010321 65 203 2.6 2.6 0.00 0.00 0.00 60 1038.1
20260506010003 65 95 3.5 5.2 0.00 0.00 0.00 60 1009.4
20260506005818 65 173 1.7 1.7 0.00 0.00 0.00 61 1038.2
20260506005502 65 184 0.9 1.7 0.00 0.00 0.00 60 1009.5
20260506005315 65 186 2.6 4.3 0.00 0.00 0.00 60 1038.0
20260506005003 65 212 2.6 3.5 0.00 0.00 0.00 60 1009.5
20260506004810 65 180 2.6 4.3 0.00 0.00 0.00 60 1038.0
20260506004503 65 140 0.9 2.6 0.00 0.00 0.00 59 1009.3
20260506004308 66 146 0.9 1.7 0.00 0.00 0.00 59 1038.2
20260506004002 66 219 3.5 4.3 0.00 0.00 0.00 59 1009.7
20260506003804 66 179 2.6 2.6 0.00 0.00 0.00 58 1038.1
20260506003502 66 176 2.6 3.5 0.00 0.00 0.00 58 1009.5
20260506003301 66 60 2.6 4.3 0.00 0.00 0.00 58 1038.2
20260506003004 66 210 2.6 3.5 0.00 0.00 0.00 58 1009.4
20260506002757 66 201 2.6 2.6 0.00 0.00 0.00 58 1038.1
20260506002502 66 224 2.6 3.5 0.00 0.00 0.00 57 1009.3
20260506002253 66 176 1.7 2.6 0.00 0.00 0.00 57 1038.3
20260506002003 67 184 1.7 4.3 0.00 0.00 0.00 57 1009.3
20260506001749 67 200 2.6 2.6 0.00 0.00 0.00 56 1037.9
20260506001502 67 174 1.7 1.7 0.00 0.00 0.00 56 1009.2
20260506001247 67 164 2.6 2.6 0.00 0.00 0.00 56 1037.9
20260506001002 67 197 0.9 1.7 0.00 0.00 0.00 56 1009.0
20260506000743 67 193 1.7 1.7 0.00 0.00 0.00 55 1037.5